Location: ????????
(55.4000°N, 39.1167°E)
Time: 04:24:08
(UTC+00:00)

Cosmos 1536 - Pass Details

Date: 19 May 2025
Orbit: 494 x 518 km, 82.5° (Epoch: 15 June)

Event Time Altitude Azimuth Distance (km) Brightness Sun altitude
Rises 19:54:36 0° 343° (NNW) 2,647 8.4 -12.5°
Reaches altitude 10° 19:56:50 10° 336° (NNW) 1,751 6.9 -12.6°
Maximum altitude 20:00:25 39° 267° (W) 782 3.7 -12.8°
Enters shadow 20:03:17 14° 202° (SSW) 1,473 4.6 -12.9°
